RH
65 65 69 71 72 72 65 68 72 71 72 72 71 72 73 72 80 85 90 84 77 73 77 84 78 73 72 87 94 64 73 78 58 45 39 39 39 44 46 43 48 50 50 46 45 45 44
73 70 65 71 71 72 71 69 71 72 75 74 71 70 74 74 81 85 87 86 80 81 81 79 71 70 71 92 68 68 79 64 46 43 46 38 39 43 49 54 51 54 50 46 47 44 48
74 70 70 69 73 71 73 69 74 76 77 75 74 75 78 76 77 82 83 82 75 69 69 64 62 54 71 83 71 79 70 55 50 43 46 46 42 40 48 50 51 47 44 44 51 45 47
70 73 72 68 72 73 73 72 74 76 78 77 76 77 77 79 76 78 78 82 82 77 70 66 59 58 81 67 72 64 60 44 46 42 46 46 44 48 46 47 47 43 45 44 46 47 52
73 71 71 72 72 72 72 73 74 77 78 78 78 78 76 80 77 76 78 77 75 72 66 61 72 72 85 62 61 64 56 48 46 47 47 36 49 54 48 55 49 55 62 40 47 51 50
74 67 71 72 72 71 70 71 73 75 79 79 78 78 77 82 77 77 72 72 62 61 63 62 63 69 67 70 68 63 58 48 47 46 45 48 54 54 57 50 49 47 60 50 45 54 54
76 70 68 69 71 72 71 73 74 75 79 80 78 78 79 82 76 74 76 73 77 68 73 79 75 81 73 63 60 58 59 44 46 53 54 59 57 72 62 50 40 52 46 49 60 58 63
73 71 71 71 70 71 71 72 74 78 79 80 79 79 79 77 70 69 82 94 94 88 65 65 69 72 67 68 58 56 50 49 54 64 58 62 67 62 58 52 51 48 48 57 56 60 62
75 71 72 72 72 73 74 74 73 76 81 82 80 79 80 78 70 77 88 91 88 93 70 54 64 64 67 56 65 66 56 58 62 67 65 66 63 55 55 61 62 75 59 69 67 68 61
76 74 75 76 75 74 76 74 77 79 82 85 82 80 79 76 66 86 86 86 86 85 86 68 60 57 55 62 59 58 60 58 64 66 67 66 63 56 65 69 62 58 71 69 72 66 63
78 76 78 77 76 77 78 77 78 79 83 85 84 81 75 71 74 74 79 86 86 57 89 58 61 48 56 57 60 57 59 56 73 71 57 71 74 71 73 74 66 68 70 74 75 79 85
78 78 80 79 78 76 78 78 79 80 82 85 85 82 74 73 83 84 87 84 59 80 83 69 62 70 67 66 65 60 60 57 62 68 72 76 66 69 70 70 68 68 70 64 73 74 80
82 78 81 82 80 76 76 78 79 80 83 85 85 82 75 71 77 85 85 61 83 90 62 73 78 72 70 73 68 69 74 80 78 69 86 74 75 72 66 71 70 64 66 80 67 84 63
77 84 82 83 82 80 76 76 78 80 85 84 82 73 79 76 90 85 71 78 90 76 84 64 77 69 76 72 73 73 74 83 77 76 90 86 76 74 68 72 72 79 66 79 54 72 74
70 85 86 84 83 81 78 76 77 83 87 82 72 91 86 85 86 76 77 94 85 80 72 81 69 71 73 67 73 79 85 83 85 80 70 89 84 78 71 76 68 84 85 70 91 84 92
68 81 87 85 84 84 81 76 78 84 88 80 86 83 80 87 88 80 92 90 86 73 77 76 77 77 81 75 73 82 85 81 81 82 78 77 91 83 77 77 82 75 73 87 89 91 90
68 75 79 86 87 88 85 79 79 84 85 76 78 70 68 91 79 80 94 90 86 75 75 76 81 77 78 79 80 82 86 81 78 84 79 80 77 85 87 88 87 86 89 83 81 82 91
84 75 69 81 90 90 87 84 79 83 81 74 73 78 72 86 84 96 90 82 73 78 79 81 80 77 78 76 80 80 79 74 73 72 82 85 78 96 84 79 75 80 83 84 82 82 78
82 78 68 69 90 91 88 85 82 81 80 83 72 91 68 60 82 93 85 82 81 82 82 82 81 73 77 77 78 78 74 74 76 74 81 77 84 75 53 68 86 84 87 82 79 82 85
80 68 69 79 82 90 88 86 83 80 75 77 62 76 70 85 88 80 80 82 80 81 80 77 79 76 78 79 77 74 71 80 81 78 70 69 85 58 43 32 73 91 93 89 82 95 85
84 79 79 78 79 85 88 86 83 80 72 71 81 84 86 85 78 84 80 78 79 77 80 79 79 77 74 76 76 77 68 74 85 76 83 77 85 92 84 76 70 68 71 94 94 79 80
85 83 82 81 78 84 89 86 83 80 70 84 62 60 90 86 82 80 80 80 72 76 75 80 76 74 71 64 54 66 66 75 66 86 86 89 83 89 89 75 81 84 76 75 75 81 82
86 86 86 85 83 84 89 87 84 81 69 79 93 89 65 87 82 76 71 70 70 75 73 66 74 77 82 72 66 60 59 64 65 79 87 87 91 88 86 79 78 65 61 65 73 77 72
88 86 86 87 88 87 91 86 84 81 75 84 95 78 63 65 86 69 70 76 72 76 76 77 76 76 73 77 76 78 85 85 79 79 80 90 85 86 94 80 59 38 48 59 67 63 67
89 90 89 88 89 90 91 89 82 79 71 86 97 77 70 83 64 65 65 70 62 72 78 77 72 73 77 72 70 63 52 71 96 93 91 82 83 86 95 97 68 39 54 58 56 42 50
90 87 90 91 91 91 91 92 85 77 71 85 95 92 76 80 80 60 61 65 64 70 69 70 77 80 74 78 72 63 47 43 77 94 93 90 84 80 94 99 66 33 44 54 52 34 33
90 90 90 92 94 93 92 92 92 80 72 82 91 89 82 88 82 64 66 64 66 80 72 75 80 84 79 85 72 75 71 66 59 77 89 88 90 87 77 82 77 62 52 55 49 39 36
93 94 94 95 96 95 94 93 94 89 79 80 90 92 80 82 86 71 61 65 78 76 70 66 69 81 90 85 80 76 82 71 76 70 92 91 88 89 77 83 90 60 61 49 38 44 47
88 89 90 92 94 95 96 95 95 94 85 77 93 85 79 81 89 72 67 65 61 61 65 71 69 76 81 91 90 87 80 90 79 65 85 72 73 85 76 73 58 60 54 51 50 54 55
Wind_Speed
18 17 17 17 18 19 20 19 20 21 22 22 22 23 25 26 28 27 26 20 18 19 18 25 26 14 5 9 5 10 22 14 4 2 5 5 6 5 6 5 2 6 3 5 3 6 6
16 17 17 17 18 19 19 19 19 20 21 21 22 23 26 25 22 25 27 28 29 24 22 24 18 14 9 16 7 8 12 6 2 4 3 5 5 4 8 5 5 3 7 4 6 5 5
17 17 16 16 16 18 19 19 18 20 20 20 22 24 23 24 22 20 23 22 26 22 16 14 14 13 23 4 4 11 6 2 3 4 6 3 6 7 5 6 1 1 7 4 7 5 4
18 17 17 16 17 17 18 19 18 19 20 20 21 22 22 21 20 13 17 16 19 16 13 11 13 10 9 5 10 5 8 6 7 8 9 6 8 10 5 5 7 5 6 4 4 6 4
18 18 17 17 17 17 17 19 19 19 18 18 19 20 21 21 18 13 8 8 10 13 13 6 10 8 4 14 7 7 6 5 4 6 8 4 8 6 5 6 5 7 4 3 2 5 4
18 19 17 17 17 17 17 18 19 18 20 19 18 17 18 19 18 16 7 1 9 5 3 2 3 10 9 6 6 6 5 5 8 3 7 10 7 5 5 5 4 4 5 3 2 5 4
18 19 18 17 17 17 17 16 19 19 18 19 18 18 17 17 16 17 8 5 9 9 13 8 1 10 2 8 4 8 5 6 6 10 6 6 10 5 2 2 4 6 5 4 0 1 3
18 19 19 18 17 17 17 17 17 20 18 18 17 17 17 15 10 11 7 8 2 2 7 6 6 4 1 1 9 16 7 7 7 5 2 8 6 2 3 5 7 5 5 2 2 2 2
18 18 19 19 18 17 17 17 17 18 19 16 15 15 15 15 5 7 6 4 1 1 7 8 5 6 5 7 5 10 6 3 7 7 7 7 2 2 4 5 7 5 6 2 2 4 2
18 18 18 19 19 18 17 17 16 17 19 17 14 14 15 14 8 1 3 2 2 1 8 13 9 6 6 2 6 2 4 3 7 4 4 7 4 4 5 4 2 3 1 3 3 3 2
18 18 18 19 19 18 18 17 17 16 15 17 16 14 11 11 5 3 1 2 1 4 9 12 10 4 6 7 1 9 3 8 5 2 3 2 2 5 6 2 2 3 2 3 2 4 3
19 18 18 18 19 19 18 18 17 16 15 13 14 13 9 4 3 1 1 1 3 10 3 8 6 7 5 7 6 6 6 8 3 7 7 2 1 3 2 2 3 5 5 6 3 2 3
16 19 19 18 19 19 19 19 19 17 16 14 11 9 4 1 1 1 1 4 9 10 4 7 4 6 4 7 6 6 5 7 4 6 4 6 3 3 1 4 2 5 5 3 5 4 5
15 15 18 18 19 20 20 20 20 19 17 12 5 3 5 2 2 3 3 8 14 5 4 4 3 6 6 6 5 7 3 5 5 4 4 4 5 1 1 1 3 3 3 6 5 2 5
16 15 16 18 20 21 21 21 21 19 15 10 3 2 2 3 2 4 6 10 9 7 3 1 2 5 5 5 3 5 4 1 1 2 4 4 1 1 1 1 2 2 1 2 6 1 2
15 13 15 18 20 22 24 24 22 20 16 5 3 2 2 2 3 4 8 6 3 3 3 2 4 1 3 5 4 3 2 1 1 3 2 2 3 1 1 1 4 1 4 3 2 1 5
13 13 15 17 19 19 21 25 25 24 19 2 4 4 3 2 2 7 6 3 2 2 3 3 4 4 3 4 2 2 1 1 2 2 2 3 3 3 3 3 5 3 0 3 2 3 2
14 13 15 14 16 19 20 22 23 25 18 7 3 5 1 3 7 3 3 3 2 2 1 2 2 1 3 4 3 3 4 5 5 5 3 1 4 4 6 2 4 3 5 5 4 3 1
13 11 13 15 12 16 20 22 22 22 14 2 3 2 2 3 5 3 0 3 2 2 2 1 1 1 1 3 2 2 4 2 7 6 6 5 0 2 5 3 2 4 5 5 4 3 8
11 12 12 12 11 13 17 21 22 22 13 4 4 4 6 6 2 5 4 2 2 1 2 2 1 1 1 1 2 2 1 1 3 3 4 5 3 6 7 4 4 4 6 6 6 4 5
8 10 12 11 12 12 15 18 22 22 11 4 5 0 2 3 4 3 2 3 3 3 1 2 2 4 4 1 1 2 1 1 1 1 3 3 3 3 5 8 6 10 10 9 14 12 11
7 9 10 11 11 9 13 16 20 23 8 7 3 2 2 1 2 1 2 5 6 3 5 3 3 3 6 6 7 3 4 3 4 2 2 3 2 2 6 5 6 9 13 14 17 17 17
7 8 9 10 10 8 10 13 17 21 9 4 1 1 4 3 2 3 3 3 4 2 3 4 5 2 3 8 7 6 6 4 4 7 6 4 2 3 7 3 7 7 9 14 7 6 12
8 7 8 8 9 8 7 9 12 15 9 3 1 2 4 2 0 3 2 2 2 3 2 2 5 4 2 1 0 2 2 3 6 5 4 6 5 3 5 8 3 6 4 6 9 8 15
9 7 8 8 7 7 4 5 6 10 10 4 1 2 3 1 2 3 2 3 4 3 2 3 3 2 1 4 2 5 3 1 2 4 4 2 4 2 1 2 11 3 1 6 6 6 6
10 9 9 9 8 7 5 3 2 4 5 4 1 0 3 4 4 2 1 1 2 2 4 3 3 2 5 3 2 2 4 2 2 2 5 4 5 6 1 1 6 4 3 4 3 4 0
10 10 10 10 10 9 7 6 3 3 3 4 1 1 3 2 4 4 3 3 4 2 2 3 2 1 3 2 2 4 4 2 3 6 5 6 2 9 8 6 11 8 5 1 1 5 3
4 3 6 8 10 9 10 9 7 7 7 4 1 3 3 2 5 6 5 5 2 2 3 2 2 1 3 2 3 3 3 3 2 5 7 8 8 6 5 6 11 7 4 5 4 4 3
6 5 4 5 6 9 10 10 10 10 11 7 2 2 1 3 5 4 5 3 3 6 5 2 2 3 4 3 2 2 4 2 4 4 1 4 8 8 11 10 4 5 5 3 4 5 6
Wind_Direction
17 16 10 11 6 2 1 7 3 359 2 5 7 5 1 15 23 26 25 32 85 118 112 119 119 115 57 56 44 302 334 333 311 108 98 99 73 110 89 101 53 82 113 53 62 65 62
22 16 11 12 6 2 357 6 6 359 0 3 6 12 11 16 31 24 33 59 80 97 112 122 111 88 73 70 274 298 326 318 55 79 70 65 126 114 92 58 54 111 95 79 39 32 44
25 18 14 10 10 3 355 2 4 358 359 4 3 7 11 20 42 34 35 43 68 77 82 108 100 105 64 112 307 324 332 338 329 127 90 59 129 77 140 94 170 87 78 81 21 4 30
26 18 16 15 12 8 360 353 4 0 357 359 360 6 7 18 23 62 46 36 54 52 59 64 58 66 87 295 309 352 336 40 28 43 92 90 89 96 66 122 35 47 52 96 7 359 354
23 19 18 12 12 8 7 353 356 0 357 1 358 360 3 7 14 20 82 30 40 37 42 59 31 65 28 330 23 335 11 70 53 39 50 74 67 77 36 84 49 11 124 97 50 28 348
21 22 19 14 14 12 10 0 351 360 356 359 0 4 359 2 8 26 74 187 28 71 20 336 112 64 336 341 323 338 336 45 69 53 35 37 55 79 40 64 169 153 102 58 89 337 5
19 22 18 17 14 12 10 6 351 352 1 355 358 360 4 6 18 19 48 12 12 12 36 75 47 89 247 300 312 356 2 9 29 48 60 20 72 83 66 38 110 114 98 106 85 358 344
18 20 18 14 15 12 11 3 359 348 358 356 357 355 358 6 34 30 76 71 171 288 57 38 100 80 38 306 33 359 19 61 49 61 9 42 63 320 66 81 93 79 105 48 312 27 13
18 20 16 15 13 11 8 2 357 351 348 356 354 354 352 347 37 41 68 84 178 199 81 17 360 39 347 28 47 346 27 55 66 49 39 93 135 356 83 49 81 38 109 120 166 331 67
17 17 15 14 10 8 7 3 358 352 344 345 352 355 350 334 54 238 51 319 344 313 75 341 350 17 348 349 55 348 12 107 43 98 70 72 345 98 71 71 71 106 171 108 68 48 254
13 14 13 12 8 6 5 1 358 354 349 337 339 348 5 20 150 79 171 319 143 74 66 311 322 302 345 78 232 347 346 36 80 52 94 286 50 69 64 18 25 144 93 80 90 86 45
11 12 9 10 8 3 3 358 357 354 348 337 327 334 356 28 33 196 181 170 63 47 14 330 325 346 24 19 19 337 34 47 139 65 44 75 338 52 102 56 70 140 76 47 59 73 24
11 9 7 6 5 2 1 359 355 354 347 335 322 325 23 78 1 305 31 52 47 78 258 316 329 4 13 12 22 39 29 24 71 80 9 353 357 326 83 77 49 68 61 346 358 12 228
9 7 3 3 2 1 358 358 356 353 348 347 345 75 356 32 41 18 51 56 67 239 249 279 6 349 40 359 12 14 37 32 30 75 99 118 333 164 22 71 164 57 139 151 211 246 291
3 5 2 360 360 358 357 355 356 354 349 351 83 12 47 328 57 60 63 55 168 195 190 106 12 61 0 14 75 54 36 49 289 28 112 130 332 313 130 24 99 160 77 154 101 137 324
0 0 359 360 0 357 355 354 353 353 348 357 98 51 333 340 109 67 68 117 149 209 164 131 119 126 71 345 52 40 6 281 67 44 70 204 96 9 341 90 31 180 143 76 20 124 274
356 360 358 358 358 355 354 354 352 352 353 107 60 60 261 130 69 49 88 101 182 224 170 149 175 138 165 148 143 92 347 222 177 151 112 139 110 310 18 209 181 145 126 75 117 151 197
344 354 1 357 355 353 353 354 354 355 353 45 94 39 260 138 51 46 64 100 133 154 334 341 129 130 160 178 131 144 167 197 177 162 136 183 138 180 199 186 179 172 174 149 135 229 202
338 349 355 1 359 352 351 351 353 359 17 28 67 237 304 103 87 36 115 79 92 135 173 159 300 319 274 194 104 200 209 231 167 159 166 180 112 41 352 10 11 213 193 160 126 127 204
332 345 349 355 358 357 353 350 351 355 10 80 64 25 341 45 21 111 133 132 135 174 153 157 163 73 65 332 357 209 221 222 212 186 156 114 158 188 192 206 136 210 194 188 164 192 190
317 336 349 355 351 2 355 352 351 352 1 88 31 321 188 328 9 69 53 153 149 197 226 180 151 188 168 254 329 278 274 141 51 249 50 112 230 169 265 252 243 245 236 188 207 211 211
303 321 336 347 342 5 356 355 354 353 3 77 91 86 18 68 314 113 320 225 184 180 160 242 208 186 175 186 182 197 163 209 216 44 127 12 307 43 284 295 240 264 253 231 231 238 254
285 303 322 336 347 8 5 358 0 1 18 82 303 87 104 327 10 68 236 184 234 183 188 179 190 157 234 241 210 209 193 167 172 161 176 150 137 26 264 310 298 286 241 208 188 211 218
260 280 298 320 334 353 20 8 6 17 42 97 169 107 82 300 130 221 309 241 258 243 256 178 156 162 218 124 90 61 94 163 155 198 139 143 140 147 278 339 339 251 195 177 196 235 217
236 253 277 290 306 323 350 23 23 23 35 82 149 111 117 284 210 300 255 250 313 323 277 259 236 207 60 47 1 333 335 295 61 60 182 145 121 322 299 259 292 291 126 139 178 290 212
267 246 248 264 277 291 297 315 44 47 64 88 60 140 100 114 248 204 185 185 255 272 336 279 12 72 65 85 94 240 242 268 218 97 37 112 109 136 145 297 250 234 206 178 157 315 285
251 256 258 254 257 261 266 261 235 157 91 107 203 210 97 114 254 162 192 192 138 139 223 294 314 80 51 104 195 217 264 204 226 181 164 144 202 208 218 257 282 251 244 246 46 252 2
244 295 302 285 280 274 266 257 241 207 171 127 249 218 135 172 265 198 202 163 131 165 179 202 53 345 66 158 181 237 211 241 290 171 180 172 163 188 185 220 270 177 98 188 216 286 269
124 92 44 4 326 294 276 261 243 211 184 164 230 214 225 157 249 211 236 259 214 180 153 210 221 167 198 113 195 160 230 204 189 254 88 237 190 183 190 214 232 221 241 221 191 245 283